FW0386 Weather Reports


Display with metric or nautical units.
time (UTC)temp
F
wind
direction
speed
MPH
gust
MPH
rain 1hr
in
rain 24hr
in
rain mn
in
humidity
%
barometer
mb
20260905203015 58 268 0.0 0.0 0.00 0.09 0.09 72 1022.1
20260905201539 59 268 0.0 0.0 0.00 0.09 0.09 71 1021.9
20260905200050 59 270 0.0 0.0 0.00 0.09 0.09 70 1021.6
20260905194559 60 270 0.0 1.0 0.00 0.09 0.09 69 1021.6
20260905193005 62 270 0.0 1.0 0.00 0.09 0.09 69 1021.3
20260905191521 63 271 0.0 2.0 0.00 0.09 0.09 68 1021.1
20260905190030 63 266 1.0 4.0 0.00 0.09 0.09 68 1021.0
20260905184547 64 276 0.0 2.0 0.00 0.09 0.09 67 1020.6
20260905183047 64 264 0.0 2.0 0.00 0.09 0.09 65 1020.1
20260905181601 65 276 0.0 3.0 0.00 0.09 0.09 64 1020.0
20260905180009 65 256 0.0 3.0 0.00 0.09 0.09 63 1019.8
20260905174533 66 248 0.0 3.0 0.00 0.09 0.09 63 1019.6
20260905173052 67 300 0.0 2.0 0.00 0.09 0.09 61 1019.4
20260905171607 68 276 0.0 8.0 0.00 0.09 0.09 59 1019.3
20260905170015 68 261 0.0 6.0 0.00 0.09 0.09 57 1019.2
20260905164527 69 290 2.0 9.0 0.00 0.09 0.09 55 1019.2
20260905163048 70 280 3.0 12.0 0.00 0.09 0.09 53 1019.0
20260905161553 71 287 6.0 12.0 0.00 0.09 0.09 52 1019.1
20260905160010 71 254 1.0 14.0 0.00 0.09 0.09 52 1018.8
20260905154513 72 281 2.0 11.0 0.00 0.09 0.09 50 1018.5
20260905153043 71 316 3.0 11.0 0.00 0.09 0.09 50 1018.7
20260905151601 71 297 4.0 14.0 0.00 0.09 0.09 50 1018.7
20260905150012 71 275 2.0 11.0 0.00 0.09 0.09 50 1018.5
20260905144524 71 252 2.0 12.0 0.00 0.09 0.09 50 1018.4
20260905143034 71 273 3.0 13.0 0.00 0.09 0.09 53 1018.5
20260905141539 70 250 4.0 14.0 0.00 0.09 0.09 52 1018.7
20260905140001 72 233 2.0 11.0 0.00 0.09 0.09 50 1018.6
20260905134601 70 269 6.0 17.0 0.00 0.09 0.09 51 1018.7
20260905133030 71 241 5.0 15.0 0.00 0.09 0.09 50 1018.7
20260905131602 71 259 4.0 14.0 0.00 0.09 0.09 52 1018.8
20260905130017 70 338 5.0 18.0 0.00 0.09 0.09 52 1018.9
20260905124511 72 274 2.0 10.0 0.00 0.09 0.09 52 1018.7
20260905123037 72 243 4.0 11.0 0.00 0.09 0.09 52 1018.8
20260905121604 71 100 3.0 11.0 0.00 0.09 0.09 54 1018.9
20260905120006 70 235 4.0 14.0 0.00 0.09 0.09 53 1018.9
20260905114530 69 300 6.0 16.0 0.00 0.09 0.09 56 1019.0
20260905113037 69 310 4.0 11.0 0.00 0.09 0.09 57 1019.0
20260905111611 69 266 5.0 14.0 0.00 0.09 0.09 57 1019.1
20260905110009 69 239 4.0 12.0 0.00 0.09 0.09 57 1019.0
20260905104528 69 287 7.0 19.0 0.00 0.09 0.09 57 1019.0
20260905103019 68 257 4.0 14.0 0.00 0.09 0.09 61 1019.1
20260905101550 68 304 3.0 14.0 0.00 0.09 0.09 62 1019.0
20260905100108 67 217 3.0 9.0 0.00 0.09 0.09 65 1019.2
20260905094525 66 241 2.0 12.0 0.00 0.09 0.09 68 1019.2
20260905093030 67 284 1.0 10.0 0.00 0.09 0.09 69 1019.2
20260905091553 65 298 3.0 8.0 0.00 0.09 0.09 71 1019.2
20260905090055 64 230 2.0 11.0 0.00 0.09 0.09 73 1018.9
20260905084510 63 219 1.0 8.0 0.00 0.09 0.09 77 1018.9
20260905083016 62 271 1.0 6.0 0.00 0.09 0.09 82 1019.0
20260905081533 60 224 3.0 8.0 0.00 0.09 0.09 83 1019.0
20260905080057 60 307 1.0 6.0 0.00 0.09 0.09 85 1019.0
20260905074503 59 37 1.0 7.0 0.00 0.09 0.09 86 1018.6
20260905073032 58 194 0.0 6.0 0.00 0.09 0.09 88 1018.3
20260905071528 57 285 0.0 4.0 0.01 0.09 0.09 89 1018.0
20260905070048 57 267 0.0 4.0 0.02 0.09 0.09 89 1017.7
20260905064557 56 279 0.0 5.0 0.03 0.09 0.09 89 1017.9
20260905063006 56 237 2.0 11.0 0.04 0.09 0.09 88 1016.9
20260905061508 56 209 1.0 12.0 0.06 0.08 0.08 88 1017.9
20260905060030 57 238 3.0 9.0 0.06 0.06 0.06 88 1018.2
20260905054535 57 238 1.0 4.0 0.05 0.06 0.06 88 1018.2
20260905053058 57 261 1.0 6.0 0.04 0.05 0.05 87 1018.1
20260905051507 58 280 1.0 5.0 0.02 0.02 0.02 84 1018.2
20260905050022 59 277 1.0 3.0 0.00 0.01 0.01 82 1017.6
20260905044528 58 262 0.0 4.0 0.00 0.01 0.01 82 1017.1
20260905043107 58 278 0.0 3.0 0.01 0.01 0.01 83 1017.4
20260905041550 58 264 0.0 4.0 0.01 0.01 0.01 83 1017.0
20260905040006 59 223 0.0 2.0 0.01 0.01 0.01 82 1016.8
20260905034511 60 296 1.0 4.0 0.01 0.01 0.01 78 1016.5
20260905033025 62 334 1.0 5.0 0.00 0.00 0.00 73 1016.4
20260905031530 62 224 1.0 5.0 0.00 0.00 0.00 71 1015.7
20260905030052 63 285 0.0 5.0 0.00 0.00 0.00 69 1015.7
20260905024517 63 294 1.0 6.0 0.00 0.00 0.00 67 1016.2
20260905023016 63 330 1.0 3.0 0.00 0.00 0.00 72 1015.3
20260905021547 63 345 0.0 3.0 0.00 0.00 0.00 72 1014.9
20260905020049 64 315 0.0 4.0 0.00 0.00 0.00 72 1015.1
20260905014508 64 255 1.0 6.0 0.00 0.00 0.00 72 1014.8
20260905013020 64 273 0.0 11.0 0.00 0.00 0.00 73 1014.7
20260905011532 64 48 2.0 9.0 0.00 0.00 0.00 73 1014.6
20260905010036 65 309 1.0 10.0 0.00 0.00 0.00 73 1014.4
20260905004552 66 68 3.0 11.0 0.00 0.00 0.00 71 1014.5
20260905003058 69 44 4.0 15.0 0.00 0.00 0.00 68 1013.7
20260905001513 73 248 1.0 5.0 0.00 0.00 0.00 61 1012.1
20260905000029 73 280 0.0 3.0 0.00 0.00 0.00 61 1012.1
20260904234540 73 253 0.0 4.0 0.00 0.00 0.00 61 1012.0
20260904233100 73 264 0.0 5.0 0.00 0.00 0.00 60 1012.0
20260904231518 73 287 0.0 4.0 0.00 0.00 0.00 60 1012.0
20260904230013 72 147 0.0 4.0 0.00 0.00 0.00 61 1011.9
20260904224537 72 248 0.0 2.0 0.00 0.00 0.00 61 1011.8
20260904223025 72 272 0.0 2.0 0.00 0.00 0.00 62 1011.8
20260904221548 70 225 0.0 1.0 0.00 0.00 0.00 64 1011.7
20260904220010 70 266 0.0 1.0 0.00 0.00 0.00 64 1011.6
20260904214606 69 264 0.0 1.0 0.00 0.00 0.00 66 1011.5
20260904213016 69 264 0.0 0.0 0.00 0.00 0.00 66 1011.5
20260904211513 70 264 0.0 1.0 0.00 0.00 0.00 64 1011.7
20260904210101 71 264 0.0 2.0 0.00 0.00 0.00 63 1011.6
20260904204503 70 251 0.0 2.0 0.00 0.00 0.00 63 1011.6